Time,TemperatureF,DewpointF,PressureIn,WindDirection,WindDirectionDegrees,WindSpeedMPH,WindSpeedGustMPH,Humidity,HourlyPrecipIn,Conditions,Clouds,dailyrainin,SoftwareType,DateUTC
2013-03-31 00:00:00,44.4,-0.4,30.00,SE,135,6.0,6.0,15,0.00,CLR,,0.00,WeatherDisplay:10.37,2013-03-31 04:00:00,
2013-03-31 00:03:00,44.4,0.9,30.00,South,180,4.6,0.0,16,0.00,CLR,,0.00,WeatherDisplay:10.37,2013-03-31 04:03:00,
2013-03-31 00:08:00,44.2,0.8,30.01,South,180,4.6,4.6,16,0.00,CLR,,0.00,WeatherDisplay:10.37,2013-03-31 04:08:00,
2013-03-31 00:10:00,44.2,0.8,30.00,SW,215,2.0,7.0,16,0.00,CLR,,0.00,WeatherDisplay:10.37,2013-03-31 04:10:00,
2013-03-31 00:15:00,44.2,0.7,30.00,SSW,196,1.0,6.0,16,0.00,CLR,,0.00,WeatherDisplay:10.37,2013-03-31 04:15:00,
2013-03-31 00:20:00,44.0,0.6,30.00,South,181,1.0,6.0,16,0.00,CLR,,0.00,WeatherDisplay:10.37,2013-03-31 04:20:00,
2013-03-31 00:25:00,43.9,1.8,30.00,SSW,196,2.0,7.0,17,0.00,CLR,,0.00,WeatherDisplay:10.37,2013-03-31 04:25:00,
2013-03-31 00:30:00,43.9,0.5,30.00,South,179,2.0,8.0,16,0.00,CLR,,0.00,WeatherDisplay:10.37,2013-03-31 04:30:00,
2013-03-31 00:35:00,43.9,0.5,30.00,SSW,197,1.0,6.0,16,0.00,CLR,,0.00,WeatherDisplay:10.37,2013-03-31 04:35:00,
2013-03-31 00:40:00,43.8,0.5,30.00,SW,217,1.0,8.0,16,0.00,CLR,,0.00,WeatherDisplay:10.37,2013-03-31 04:40:00,
2013-03-31 00:45:00,43.7,0.3,30.00,South,190,2.0,8.0,16,0.00,CLR,,0.00,WeatherDisplay:10.37,2013-03-31 04:45:00,
2013-03-31 00:50:00,43.5,0.2,30.00,SSW,192,2.0,5.0,16,0.00,CLR,,0.00,WeatherDisplay:10.37,2013-03-31 04:50:00,
2013-03-31 00:55:00,43.5,0.2,30.00,South,189,2.0,8.0,16,0.00,CLR,,0.00,WeatherDisplay:10.37,2013-03-31 04:55:00,
2013-03-31 01:00:00,43.3,0.1,30.00,South,175,1.0,8.0,16,0.00,CLR,,0.00,WeatherDisplay:10.37,2013-03-31 05:00:00,
2013-03-31 01:05:00,43.3,0.1,30.00,SSW,202,5.8,5.8,16,0.00,CLR,,0.00,WeatherDisplay:10.37,2013-03-31 05:05:00,
2013-03-31 01:10:00,43.3,0.1,29.99,South,180,5.8,5.8,16,0.00,CLR,,0.00,WeatherDisplay:10.37,2013-03-31 05:10:00,
2013-03-31 01:15:00,43.2,1.2,29.99,South,180,3.5,3.5,17,0.00,CLR,,0.00,WeatherDisplay:10.37,2013-03-31 05:15:00,
2013-03-31 01:20:00,43.0,1.1,29.99,South,180,3.5,3.5,17,0.00,CLR,,0.00,WeatherDisplay:10.37,2013-03-31 05:20:00,
2013-03-31 01:25:00,43.0,1.1,29.99,South,180,3.5,0.0,17,0.00,CLR,,0.00,WeatherDisplay:10.37,2013-03-31 05:25:00,
2013-03-31 01:30:00,42.8,0.9,29.99,SE,135,2.3,2.3,17,0.00,CLR,,0.00,WeatherDisplay:10.37,2013-03-31 05:30:00,
2013-03-31 01:35:00,42.6,2.0,30.00,South,180,5.8,5.8,18,0.00,CLR,,0.00,WeatherDisplay:10.37,2013-03-31 05:35:00,
2013-03-31 01:40:00,42.6,2.0,29.99,SW,225,4.6,4.6,18,0.00,CLR,,0.00,WeatherDisplay:10.37,2013-03-31 05:40:00,
2013-03-31 01:45:00,42.6,2.0,29.99,South,180,3.5,0.0,18,0.00,CLR,,0.00,WeatherDisplay:10.37,2013-03-31 05:45:00,
2013-03-31 01:50:00,42.4,1.8,29.99,South,180,2.3,0.0,18,0.00,CLR,,0.00,WeatherDisplay:10.37,2013-03-31 05:50:00,
2013-03-31 01:55:00,42.3,1.7,29.99,SW,225,1.2,0.0,18,0.00,CLR,,0.00,WeatherDisplay:10.37,2013-03-31 05:55:00,
2013-03-31 02:00:00,42.1,2.7,29.99,SW,225,5.4,5.4,19,0.00,CLR,,0.00,WeatherDisplay:10.37,2013-03-31 06:00:00,
2013-03-31 02:05:00,42.1,2.7,29.99,South,180,3.5,0.0,19,0.00,CLR,,0.00,WeatherDisplay:10.37,2013-03-31 06:05:00,
2013-03-31 02:10:00,42.1,2.7,29.99,South,180,3.5,3.5,19,0.00,CLR,,0.00,WeatherDisplay:10.37,2013-03-31 06:10:00,
2013-03-31 02:15:00,42.1,2.7,29.99,South,180,3.5,3.5,19,0.00,CLR,,0.00,WeatherDisplay:10.37,2013-03-31 06:15:00,
2013-03-31 02:20:00,41.9,3.7,29.99,SW,225,3.5,0.0,20,0.00,CLR,,0.00,WeatherDisplay:10.37,2013-03-31 06:20:00,
2013-03-31 02:25:00,41.9,3.7,29.99,South,180,3.5,3.5,20,0.00,CLR,,0.00,WeatherDisplay:10.37,2013-03-31 06:25:00,
2013-03-31 02:30:00,41.9,3.7,29.99,South,180,3.5,0.0,20,0.00,CLR,,0.00,WeatherDisplay:10.37,2013-03-31 06:30:00,
2013-03-31 02:35:00,41.7,3.5,29.99,SW,225,5.8,5.8,20,0.00,CLR,,0.00,WeatherDisplay:10.37,2013-03-31 06:35:00,
2013-03-31 02:40:00,41.5,3.4,29.99,SSE,158,2.3,2.3,20,0.00,CLR,,0.00,WeatherDisplay:10.37,2013-03-31 06:40:00,
2013-03-31 02:45:00,41.4,4.3,29.99,South,180,8.1,8.1,21,0.00,CLR,,0.00,WeatherDisplay:10.37,2013-03-31 06:45:00,
2013-03-31 02:50:00,41.7,4.6,29.99,South,180,3.5,3.5,21,0.00,CLR,,0.00,WeatherDisplay:10.37,2013-03-31 06:50:00,
2013-03-31 02:55:00,41.7,4.6,29.99,South,180,5.8,0.0,21,0.00,CLR,,0.00,WeatherDisplay:10.37,2013-03-31 06:55:00,
2013-03-31 03:00:00,41.5,4.4,29.99,South,180,2.3,2.3,21,0.00,CLR,,0.00,WeatherDisplay:10.37,2013-03-31 07:00:00,
2013-03-31 03:05:00,41.4,5.3,29.99,SE,135,2.3,0.0,22,0.00,CLR,,0.00,WeatherDisplay:10.37,2013-03-31 07:05:00,
2013-03-31 03:10:00,41.2,5.1,29.99,West,270,1.2,0.0,22,0.00,CLR,,0.00,WeatherDisplay:10.37,2013-03-31 07:10:00,
2013-03-31 03:15:00,41.0,6.9,29.99,West,270,3.5,0.0,24,0.00,CLR,,0.00,WeatherDisplay:10.37,2013-03-31 07:15:00,
2013-03-31 03:20:00,40.8,7.7,29.98,South,180,2.3,0.0,25,0.00,CLR,,0.00,WeatherDisplay:10.37,2013-03-31 07:20:00,
2013-03-31 03:25:00,40.6,7.5,29.98,South,180,1.2,0.0,25,0.00,CLR,,0.00,WeatherDisplay:10.37,2013-03-31 07:25:00,
2013-03-31 03:30:00,40.3,7.2,29.98,South,180,1.2,0.0,25,0.00,CLR,,0.00,WeatherDisplay:10.37,2013-03-31 07:30:00,
2013-03-31 03:35:00,39.7,6.7,29.98,West,270,1.2,0.0,25,0.00,CLR,,0.00,WeatherDisplay:10.37,2013-03-31 07:35:00,
2013-03-31 03:40:00,39.6,8.3,29.98,SW,225,1.2,0.0,27,0.00,CLR,,0.00,WeatherDisplay:10.37,2013-03-31 07:40:00,
2013-03-31 03:45:00,39.2,8.8,29.98,West,270,3.5,0.0,28,0.00,CLR,,0.00,WeatherDisplay:10.37,2013-03-31 07:45:00,
2013-03-31 03:50:00,39.2,8.8,29.98,NW,315,1.2,0.0,28,0.00,CLR,,0.00,WeatherDisplay:10.37,2013-03-31 07:50:00,
2013-03-31 03:55:00,39.0,9.4,29.98,South,180,0.0,0.0,29,0.00,CLR,,0.00,WeatherDisplay:10.37,2013-03-31 07:55:00,
2013-03-31 04:00:00,39.0,10.2,29.98,NW,315,1.2,0.0,30,0.00,CLR,,0.00,WeatherDisplay:10.37,2013-03-31 08:00:00,
2013-03-31 04:05:00,39.0,11.6,29.98,SSE,158,3.5,0.0,32,0.00,CLR,,0.00,WeatherDisplay:10.37,2013-03-31 08:05:00,
2013-03-31 04:10:00,39.4,12.6,29.98,SSW,202,2.3,2.3,33,0.00,CLR,,0.00,WeatherDisplay:10.37,2013-03-31 08:10:00,
2013-03-31 04:15:00,39.6,12.8,29.98,SSW,202,1.2,1.2,33,0.00,CLR,,0.00,WeatherDisplay:10.37,2013-03-31 08:15:00,
2013-03-31 04:20:00,39.4,12.6,29.98,South,180,3.5,0.0,33,0.00,CLR,,0.00,WeatherDisplay:10.37,2013-03-31 08:20:00,
2013-03-31 04:25:00,39.4,12.6,29.98,SSE,158,3.5,3.5,33,0.00,CLR,,0.00,WeatherDisplay:10.37,2013-03-31 08:25:00,
2013-03-31 04:30:00,39.4,12.6,29.98,South,180,1.2,0.0,33,0.00,CLR,,0.00,WeatherDisplay:10.37,2013-03-31 08:30:00,
2013-03-31 04:35:00,39.2,12.5,29.97,SW,225,0.0,0.0,33,0.00,CLR,,0.00,WeatherDisplay:10.37,2013-03-31 08:35:00,
2013-03-31 04:40:00,38.8,12.1,29.97,SW,225,1.2,0.0,33,0.00,CLR,,0.00,WeatherDisplay:10.37,2013-03-31 08:40:00,
2013-03-31 04:45:00,38.7,12.7,29.98,South,180,1.2,0.0,34,0.00,CLR,,0.00,WeatherDisplay:10.37,2013-03-31 08:45:00,
2013-03-31 04:50:00,38.7,13.3,29.98,SW,225,0.0,0.0,35,0.00,CLR,,0.00,WeatherDisplay:10.37,2013-03-31 08:50:00,
2013-03-31 04:55:00,38.3,13.0,29.97,NW,315,0.0,0.0,35,0.00,CLR,,0.00,WeatherDisplay:10.37,2013-03-31 08:55:00,
2013-03-31 05:00:00,38.1,13.5,29.97,South,180,0.0,0.0,36,0.00,CLR,,0.00,WeatherDisplay:10.37,2013-03-31 09:00:00,
2013-03-31 05:05:00,38.1,14.1,29.97,South,180,0.0,0.0,37,0.00,CLR,,0.00,WeatherDisplay:10.37,2013-03-31 09:05:00,
2013-03-31 05:10:00,37.9,13.9,29.97,West,270,0.0,0.0,37,0.00,CLR,,0.00,WeatherDisplay:10.37,2013-03-31 09:10:00,
2013-03-31 05:15:00,37.9,15.1,29.98,South,180,1.2,0.0,39,0.00,CLR,,0.00,WeatherDisplay:10.37,2013-03-31 09:15:00,
2013-03-31 05:20:00,37.9,15.1,29.98,South,180,2.3,0.0,39,0.00,CLR,,0.00,WeatherDisplay:10.37,2013-03-31 09:20:00,
2013-03-31 05:25:00,37.9,15.1,29.98,WNW,292,0.0,0.0,39,0.00,CLR,,0.00,WeatherDisplay:10.37,2013-03-31 09:25:00,
2013-03-31 05:30:00,37.8,15.0,29.98,SE,135,0.0,0.0,39,0.00,CLR,,0.00,WeatherDisplay:10.37,2013-03-31 09:30:00,
2013-03-31 05:35:00,37.4,14.7,29.98,South,180,0.0,0.0,39,0.00,CLR,,0.00,WeatherDisplay:10.37,2013-03-31 09:35:00,
2013-03-31 05:40:00,37.2,14.5,29.97,South,180,0.0,0.0,39,0.00,CLR,,0.00,WeatherDisplay:10.37,2013-03-31 09:40:00,
2013-03-31 05:45:00,36.9,14.8,29.97,South,180,0.0,0.0,40,0.00,CLR,,0.00,WeatherDisplay:10.37,2013-03-31 09:45:00,
2013-03-31 05:50:00,36.7,14.6,29.98,West,270,0.0,0.0,40,0.00,CLR,,0.00,WeatherDisplay:10.37,2013-03-31 09:50:00,
2013-03-31 05:55:00,36.5,14.4,29.97,West,270,0.0,0.0,40,0.00,CLR,,0.00,WeatherDisplay:10.37,2013-03-31 09:55:00,
2013-03-31 06:00:00,36.3,14.3,29.97,West,270,0.0,0.0,40,0.00,CLR,,0.00,WeatherDisplay:10.37,2013-03-31 10:00:00,
2013-03-31 06:05:00,36.0,13.9,29.97,West,270,0.0,0.0,40,0.00,CLR,,0.00,WeatherDisplay:10.37,2013-03-31 10:05:00,
2013-03-31 06:10:00,35.6,13.6,29.97,West,270,0.0,0.0,40,0.00,CLR,,0.00,WeatherDisplay:10.37,2013-03-31 10:10:00,
2013-03-31 06:15:00,35.4,14.0,29.97,West,270,0.0,0.0,41,0.00,CLR,,0.00,WeatherDisplay:10.37,2013-03-31 10:15:00,
2013-03-31 06:20:00,35.1,13.7,29.96,West,270,0.0,0.0,41,0.00,CLR,,0.00,WeatherDisplay:10.37,2013-03-31 10:20:00,
2013-03-31 06:25:00,34.7,13.4,29.96,West,270,0.0,0.0,41,0.00,CLR,,0.00,WeatherDisplay:10.37,2013-03-31 10:25:00,
2013-03-31 06:30:00,34.7,13.9,29.96,West,270,0.0,0.0,42,0.00,CLR,,0.00,WeatherDisplay:10.37,2013-03-31 10:30:00,
2013-03-31 06:35:00,34.7,13.9,29.97,West,270,0.0,0.0,42,0.00,CLR,,0.00,WeatherDisplay:10.37,2013-03-31 10:35:00,
2013-03-31 06:40:00,34.5,14.3,29.97,West,270,0.0,0.0,43,0.00,CLR,,0.00,WeatherDisplay:10.37,2013-03-31 10:40:00,
2013-03-31 06:45:00,34.5,14.8,29.97,West,270,0.0,0.0,44,0.00,CLR,,0.00,WeatherDisplay:10.37,2013-03-31 10:45:00,
2013-03-31 06:50:00,34.5,14.8,29.96,West,270,0.0,0.0,44,0.00,CLR,,0.00,WeatherDisplay:10.37,2013-03-31 10:50:00,
2013-03-31 06:55:00,34.3,14.7,29.97,West,270,0.0,0.0,44,0.00,CLR,,0.00,WeatherDisplay:10.37,2013-03-31 10:55:00,
2013-03-31 07:00:00,34.3,14.7,29.96,West,270,0.0,0.0,44,0.00,CLR,,0.00,WeatherDisplay:10.37,2013-03-31 11:00:00,
2013-03-31 07:05:00,34.5,14.8,29.96,West,270,0.0,0.0,44,0.00,CLR,,0.00,WeatherDisplay:10.37,2013-03-31 11:05:00,
2013-03-31 07:10:00,34.9,15.7,29.96,West,270,0.0,0.0,45,0.00,CLR,,0.00,WeatherDisplay:10.37,2013-03-31 11:10:00,
2013-03-31 07:15:00,35.4,16.2,29.96,West,270,0.0,0.0,45,0.00,CLR,,0.00,WeatherDisplay:10.37,2013-03-31 11:15:00,
2013-03-31 07:20:00,35.8,16.5,29.96,West,270,0.0,0.0,45,0.00,CLR,,0.00,WeatherDisplay:10.37,2013-03-31 11:20:00,
2013-03-31 07:25:00,36.1,17.3,29.96,West,270,0.0,0.0,46,0.00,CLR,,0.00,WeatherDisplay:10.37,2013-03-31 11:25:00,
2013-03-31 07:30:00,36.7,17.8,29.96,West,270,0.0,0.0,46,0.00,CLR,,0.00,WeatherDisplay:10.37,2013-03-31 11:30:00,
2013-03-31 07:35:00,37.2,18.3,29.96,West,270,0.0,0.0,46,0.00,CLR,,0.00,WeatherDisplay:10.37,2013-03-31 11:35:00,
2013-03-31 07:40:00,37.8,18.8,29.95,West,270,0.0,0.0,46,0.00,CLR,,0.00,WeatherDisplay:10.37,2013-03-31 11:40:00,
2013-03-31 07:45:00,38.5,19.5,29.96,West,270,0.0,0.0,46,0.00,CLR,,0.00,WeatherDisplay:10.37,2013-03-31 11:45:00,
2013-03-31 07:50:00,39.2,20.1,29.95,West,270,0.0,0.0,46,0.00,CLR,,0.00,WeatherDisplay:10.37,2013-03-31 11:50:00,
2013-03-31 07:55:00,40.3,21.1,29.96,West,270,0.0,0.0,46,0.00,CLR,,0.00,WeatherDisplay:10.37,2013-03-31 11:55:00,
2013-03-31 08:00:00,41.0,21.8,29.95,West,270,0.0,0.0,46,0.00,CLR,,0.00,WeatherDisplay:10.37,2013-03-31 12:00:00,
2013-03-31 08:05:00,43.7,24.8,29.96,South,180,0.0,0.0,47,0.00,CLR,,0.00,WeatherDisplay:10.37,2013-03-31 12:05:00,
2013-03-31 08:10:00,47.3,25.9,29.95,SW,225,1.6,0.0,43,0.00,CLR,,0.00,WeatherDisplay:10.37,2013-03-31 12:10:00,
2013-03-31 08:15:00,49.8,24.6,29.95,South,180,1.2,0.0,37,0.00,CLR,,0.00,WeatherDisplay:10.37,2013-03-31 12:15:00,
2013-03-31 08:20:00,51.3,18.4,29.96,South,180,3.5,3.5,27,0.00,CLR,,0.00,WeatherDisplay:10.37,2013-03-31 12:20:00,
2013-03-31 08:25:00,52.0,17.2,29.96,South,180,3.5,3.5,25,0.00,CLR,,0.00,WeatherDisplay:10.37,2013-03-31 12:25:00,
2013-03-31 08:30:00,52.9,15.0,29.96,NW,315,3.5,3.5,22,0.00,CLR,,0.00,WeatherDisplay:10.37,2013-03-31 12:30:00,
2013-03-31 08:35:00,51.8,13.0,29.95,South,180,3.5,3.5,21,0.00,CLR,,0.00,WeatherDisplay:10.37,2013-03-31 12:35:00,
2013-03-31 08:40:00,52.2,16.4,29.96,South,180,3.5,3.5,24,0.00,CLR,,0.00,WeatherDisplay:10.37,2013-03-31 12:40:00,
2013-03-31 08:45:00,53.4,16.5,29.95,SW,225,3.5,0.0,23,0.00,CLR,,0.00,WeatherDisplay:10.37,2013-03-31 12:45:00,
2013-03-31 08:50:00,54.1,15.0,29.95,SW,225,3.5,3.5,21,0.00,CLR,,0.00,WeatherDisplay:10.37,2013-03-31 12:50:00,
2013-03-31 08:55:00,55.2,17.0,29.95,NW,315,1.2,0.0,22,0.00,CLR,,0.00,WeatherDisplay:10.37,2013-03-31 12:55:00,
2013-03-31 09:00:00,56.5,13.4,29.95,NW,315,3.5,0.0,18,0.00,CLR,,0.00,WeatherDisplay:10.37,2013-03-31 13:00:00,
2013-03-31 09:05:00,57.9,13.3,29.95,West,270,2.3,2.3,17,0.00,CLR,,0.00,WeatherDisplay:10.37,2013-03-31 13:05:00,
2013-03-31 09:10:00,58.1,9.1,29.95,SSW,202,4.6,4.6,14,0.00,CLR,,0.00,WeatherDisplay:10.37,2013-03-31 13:10:00,
2013-03-31 09:15:00,58.1,9.1,29.95,South,180,3.5,3.5,14,0.00,CLR,,0.00,WeatherDisplay:10.37,2013-03-31 13:15:00,
2013-03-31 09:20:00,58.5,9.4,29.95,SW,225,3.5,3.5,14,0.00,CLR,,0.00,WeatherDisplay:10.37,2013-03-31 13:20:00,
2013-03-31 09:25:00,57.4,8.5,29.95,SW,225,5.8,5.8,14,0.00,CLR,,0.00,WeatherDisplay:10.37,2013-03-31 13:25:00,
2013-03-31 09:30:00,57.4,12.9,29.95,SSW,202,3.5,0.0,17,0.00,CLR,,0.00,WeatherDisplay:10.37,2013-03-31 13:30:00,
2013-03-31 09:35:00,57.0,12.6,29.95,SW,225,4.6,4.6,17,0.00,CLR,,0.00,WeatherDisplay:10.37,2013-03-31 13:35:00,
2013-03-31 09:40:00,55.6,13.9,29.95,West,270,2.3,2.3,19,0.00,CLR,,0.00,WeatherDisplay:10.37,2013-03-31 13:40:00,
2013-03-31 09:45:00,54.0,15.9,29.95,SSW,202,6.9,6.9,22,0.00,CLR,,0.00,WeatherDisplay:10.37,2013-03-31 13:45:00,
2013-03-31 09:50:00,52.9,18.0,29.95,SW,225,3.5,3.5,25,0.00,CLR,,0.00,WeatherDisplay:10.37,2013-03-31 13:50:00,
2013-03-31 09:56:00,52.2,18.3,29.95,South,180,6.9,6.9,26,0.00,CLR,,0.00,WeatherDisplay:10.37,2013-03-31 13:56:00,
2013-03-31 10:01:00,51.8,20.5,29.95,SW,225,5.8,5.8,29,0.00,CLR,,0.00,WeatherDisplay:10.37,2013-03-31 14:01:00,
2013-03-31 10:06:00,52.5,21.1,29.95,West,270,2.3,0.0,29,0.00,CLR,,0.00,WeatherDisplay:10.37,2013-03-31 14:06:00,
2013-03-31 10:12:00,52.5,19.5,29.95,North,0,4.6,0.0,27,0.00,CLR,,0.00,WeatherDisplay:10.37,2013-03-31 14:12:00,
2013-03-31 10:17:00,53.2,20.9,29.94,SE,135,3.5,3.5,28,0.00,CLR,,0.00,WeatherDisplay:10.37,2013-03-31 14:17:00,
2013-03-31 10:22:00,53.6,18.6,29.94,South,180,6.9,6.9,25,0.00,CLR,,0.00,WeatherDisplay:10.37,2013-03-31 14:22:00,
2013-03-31 10:27:00,54.1,19.0,29.95,SSW,202,3.5,3.5,25,0.00,CLR,,0.00,WeatherDisplay:10.37,2013-03-31 14:27:00,
2013-03-31 10:33:00,55.4,18.2,29.94,NE,45,3.5,3.5,23,0.00,CLR,,0.00,WeatherDisplay:10.37,2013-03-31 14:33:00,
2013-03-31 10:38:00,55.9,16.5,29.94,SW,225,3.5,3.5,21,0.00,CLR,,0.00,WeatherDisplay:10.37,2013-03-31 14:38:00,
2013-03-31 10:43:00,55.4,14.9,29.93,South,180,4.6,4.6,20,0.00,CLR,,0.00,WeatherDisplay:10.37,2013-03-31 14:43:00,
2013-03-31 10:48:00,55.6,13.9,29.93,SE,135,6.9,6.9,19,0.00,CLR,,0.00,WeatherDisplay:10.37,2013-03-31 14:48:00,
2013-03-31 10:53:00,55.9,14.2,29.93,SSW,202,8.1,8.1,19,0.00,CLR,,0.00,WeatherDisplay:10.37,2013-03-31 14:53:00,
2013-03-31 10:58:00,55.4,14.9,29.93,South,180,8.1,8.1,20,0.00,CLR,,0.00,WeatherDisplay:10.37,2013-03-31 14:58:00,
2013-03-31 11:03:00,54.7,16.5,29.93,SE,135,10.4,10.4,22,0.00,CLR,,0.00,WeatherDisplay:10.37,2013-03-31 15:03:00,
2013-03-31 11:08:00,54.1,17.1,29.92,SW,225,5.8,5.8,23,0.00,CLR,,0.00,WeatherDisplay:10.37,2013-03-31 15:08:00,
2013-03-31 11:13:00,53.6,17.6,29.92,South,180,9.2,9.2,24,0.00,CLR,,0.00,WeatherDisplay:10.37,2013-03-31 15:13:00,
2013-03-31 11:19:00,53.4,19.3,29.92,SW,225,8.1,8.1,26,0.00,CLR,,0.00,WeatherDisplay:10.37,2013-03-31 15:19:00,
2013-03-31 11:24:00,52.9,19.8,29.92,SW,225,5.8,5.8,27,0.00,CLR,,0.00,WeatherDisplay:10.37,2013-03-31 15:24:00,
2013-03-31 11:29:00,52.3,19.3,29.92,West,270,10.4,10.4,27,0.00,CLR,,0.00,WeatherDisplay:10.37,2013-03-31 15:29:00,
2013-03-31 11:34:00,52.3,20.2,29.92,SW,225,8.1,8.1,28,0.00,CLR,,0.00,WeatherDisplay:10.37,2013-03-31 15:34:00,
2013-03-31 11:39:00,52.5,20.3,29.92,South,180,6.9,6.9,28,0.00,CLR,,0.00,WeatherDisplay:10.37,2013-03-31 15:39:00,
2013-03-31 11:44:00,52.9,19.8,29.91,SE,135,9.2,0.0,27,0.00,CLR,,0.00,WeatherDisplay:10.37,2013-03-31 15:44:00,
2013-03-31 11:49:00,53.1,19.0,29.91,South,180,8.1,8.1,26,0.00,CLR,,0.00,WeatherDisplay:10.37,2013-03-31 15:49:00,
2013-03-31 11:54:00,53.2,18.3,29.90,SW,225,8.1,8.1,25,0.00,CLR,,0.00,WeatherDisplay:10.37,2013-03-31 15:54:00,
2013-03-31 11:59:00,53.2,19.2,29.90,South,180,6.9,6.9,26,0.00,CLR,,0.00,WeatherDisplay:10.37,2013-03-31 15:59:00,
2013-03-31 12:04:00,53.4,18.4,29.90,South,180,8.1,8.1,25,0.00,CLR,,0.00,WeatherDisplay:10.37,2013-03-31 16:04:00,
2013-03-31 12:09:00,53.4,18.4,29.90,South,180,8.1,8.1,25,0.00,CLR,,0.00,WeatherDisplay:10.37,2013-03-31 16:09:00,
2013-03-31 12:14:00,53.4,18.4,29.89,SW,225,5.8,5.8,25,0.00,CLR,,0.00,WeatherDisplay:10.37,2013-03-31 16:14:00,
2013-03-31 12:19:00,53.1,19.0,29.89,South,180,10.4,10.4,26,0.00,CLR,,0.00,WeatherDisplay:10.37,2013-03-31 16:19:00,
2013-03-31 12:24:00,52.9,19.8,29.89,South,180,10.4,10.4,27,0.00,CLR,,0.00,WeatherDisplay:10.37,2013-03-31 16:24:00,
2013-03-31 12:29:00,52.5,20.3,29.89,SW,225,8.1,8.1,28,0.00,CLR,,0.00,WeatherDisplay:10.37,2013-03-31 16:29:00,
2013-03-31 12:34:00,52.5,20.3,29.88,West,270,8.1,8.1,28,0.00,CLR,,0.00,WeatherDisplay:10.37,2013-03-31 16:34:00,
2013-03-31 12:39:00,52.2,20.8,29.88,ESE,112,10.7,10.7,29,0.00,CLR,,0.00,WeatherDisplay:10.37,2013-03-31 16:39:00,
2013-03-31 12:44:00,52.0,19.8,29.88,SE,135,8.1,8.1,28,0.00,CLR,,0.00,WeatherDisplay:10.37,2013-03-31 16:44:00,
2013-03-31 12:49:00,52.0,20.7,29.87,South,180,5.8,5.8,29,0.00,CLR,,0.00,WeatherDisplay:10.37,2013-03-31 16:49:00,
2013-03-31 12:54:00,52.5,20.3,29.87,SW,225,5.8,5.8,28,0.00,CLR,,0.00,WeatherDisplay:10.37,2013-03-31 16:54:00,
2013-03-31 12:59:00,52.5,19.5,29.87,SW,225,5.8,5.8,27,0.00,CLR,,0.00,WeatherDisplay:10.37,2013-03-31 16:59:00,
2013-03-31 13:04:00,52.3,20.2,29.87,West,270,2.3,0.0,28,0.00,CLR,,0.00,WeatherDisplay:10.37,2013-03-31 17:04:00,
2013-03-31 13:09:00,52.3,20.2,29.86,SSW,202,3.5,3.5,28,0.00,CLR,,0.00,WeatherDisplay:10.37,2013-03-31 17:09:00,
2013-03-31 13:15:00,52.0,19.8,29.86,SW,224,3.0,9.0,28,0.00,CLR,,0.00,WeatherDisplay:10.37,2013-03-31 17:15:00,
2013-03-31 13:20:00,51.6,20.3,29.86,SW,222,2.0,8.0,29,0.00,CLR,,0.00,WeatherDisplay:10.37,2013-03-31 17:20:00,
2013-03-31 13:25:00,51.3,20.0,29.85,SSW,202,3.0,9.0,29,0.00,CLR,,0.00,WeatherDisplay:10.37,2013-03-31 17:25:00,
2013-03-31 13:30:00,51.3,20.8,29.85,SSW,203,1.0,9.0,30,0.00,CLR,,0.00,WeatherDisplay:10.37,2013-03-31 17:30:00,
2013-03-31 13:35:00,51.3,20.0,29.85,SSW,195,2.0,10.0,29,0.00,CLR,,0.00,WeatherDisplay:10.37,2013-03-31 17:35:00,
2013-03-31 13:40:00,50.9,19.7,29.84,South,184,5.0,12.0,29,0.00,CLR,,0.00,WeatherDisplay:10.37,2013-03-31 17:40:00,
2013-03-31 13:45:00,50.7,20.4,29.84,WSW,244,3.0,8.0,30,0.00,CLR,,0.00,WeatherDisplay:10.37,2013-03-31 17:45:00,
2013-03-31 13:50:00,51.1,19.9,29.83,WSW,239,2.0,6.0,29,0.00,CLR,,0.00,WeatherDisplay:10.37,2013-03-31 17:50:00,
2013-03-31 13:55:00,51.1,19.9,29.83,SSW,209,5.0,10.0,29,0.00,CLR,,0.00,WeatherDisplay:10.37,2013-03-31 17:55:00,
2013-03-31 14:00:00,51.1,19.9,29.83,SW,225,8.1,8.1,29,0.00,CLR,,0.00,WeatherDisplay:10.37,2013-03-31 18:00:00,
2013-03-31 14:05:00,51.3,20.0,29.83,South,180,8.1,8.1,29,0.00,CLR,,0.00,WeatherDisplay:10.37,2013-03-31 18:05:00,
2013-03-31 14:10:00,52.0,19.8,29.82,SSE,158,6.9,6.9,28,0.00,CLR,,0.00,WeatherDisplay:10.37,2013-03-31 18:10:00,
2013-03-31 14:15:00,52.9,20.6,29.81,East,90,4.6,4.6,28,0.00,CLR,,0.00,WeatherDisplay:10.37,2013-03-31 18:15:00,
2013-03-31 14:20:00,53.1,19.0,29.81,SW,225,3.5,3.5,26,0.00,CLR,,0.00,WeatherDisplay:10.37,2013-03-31 18:20:00,
2013-03-31 14:25:00,52.3,18.4,29.81,West,270,6.9,6.9,26,0.00,CLR,,0.00,WeatherDisplay:10.37,2013-03-31 18:25:00,
2013-03-31 14:30:00,52.5,19.5,29.81,South,180,5.8,5.8,27,0.00,CLR,,0.00,WeatherDisplay:10.37,2013-03-31 18:30:00,
2013-03-31 14:36:00,52.5,19.5,29.80,SW,225,5.8,5.8,27,0.00,CLR,,0.00,WeatherDisplay:10.37,2013-03-31 18:36:00,
2013-03-31 14:42:00,52.3,19.3,29.80,North,0,3.5,3.5,27,0.00,CLR,,0.00,WeatherDisplay:10.37,2013-03-31 18:42:00,
2013-03-31 14:47:00,52.7,18.7,29.79,SW,225,5.8,5.8,26,0.00,CLR,,0.00,WeatherDisplay:10.37,2013-03-31 18:47:00,
2013-03-31 14:52:00,52.7,17.8,29.78,SW,225,3.5,3.5,25,0.00,CLR,,0.00,WeatherDisplay:10.37,2013-03-31 18:52:00,
2013-03-31 14:57:00,52.2,17.3,29.78,WNW,292,12.7,12.7,25,0.00,CLR,,0.00,WeatherDisplay:10.37,2013-03-31 18:57:00,
2013-03-31 15:02:00,51.6,18.7,29.77,SW,225,9.8,9.8,27,0.00,CLR,,0.00,WeatherDisplay:10.37,2013-03-31 19:02:00,
2013-03-31 15:08:00,50.9,18.9,29.77,West,270,15.0,15.0,28,0.00,CLR,,0.00,WeatherDisplay:10.37,2013-03-31 19:08:00,
2013-03-31 15:13:00,50.4,20.1,29.77,SW,225,8.1,8.1,30,0.00,CLR,,0.00,WeatherDisplay:10.37,2013-03-31 19:13:00,
2013-03-31 15:18:00,50.4,20.8,29.77,NE,45,8.1,8.1,31,0.00,CLR,,0.00,WeatherDisplay:10.37,2013-03-31 19:18:00,
2013-03-31 15:23:00,50.4,20.8,29.76,SE,135,8.1,8.1,31,0.00,CLR,,0.00,WeatherDisplay:10.37,2013-03-31 19:23:00,
2013-03-31 15:28:00,50.2,20.7,29.76,NW,315,10.4,10.4,31,0.00,CLR,,0.00,WeatherDisplay:10.37,2013-03-31 19:28:00,
2013-03-31 15:33:00,50.0,21.3,29.75,West,270,8.1,8.1,32,0.00,CLR,,0.00,WeatherDisplay:10.37,2013-03-31 19:33:00,
2013-03-31 15:38:00,49.5,21.5,29.75,NE,45,11.5,11.5,33,0.00,CLR,,0.00,WeatherDisplay:10.37,2013-03-31 19:38:00,
2013-03-31 15:43:00,49.3,22.1,29.75,SW,225,9.2,9.2,34,0.00,CLR,,0.00,WeatherDisplay:10.37,2013-03-31 19:43:00,
2013-03-31 15:48:00,49.3,22.8,29.75,SE,135,8.1,8.1,35,0.00,CLR,,0.00,WeatherDisplay:10.37,2013-03-31 19:48:00,
2013-03-31 15:53:00,49.1,22.6,29.75,NW,315,6.9,0.0,35,0.00,CLR,,0.00,WeatherDisplay:10.37,2013-03-31 19:53:00,
2013-03-31 15:59:00,49.3,22.8,29.75,SW,225,8.1,8.1,35,0.00,CLR,,0.00,WeatherDisplay:10.37,2013-03-31 19:59:00,
2013-03-31 16:04:00,49.5,22.2,29.75,East,90,5.8,5.8,34,0.00,CLR,,0.00,WeatherDisplay:10.37,2013-03-31 20:04:00,
2013-03-31 16:09:00,49.3,22.8,29.75,SW,225,12.7,12.7,35,0.00,CLR,,0.00,WeatherDisplay:10.37,2013-03-31 20:09:00,
2013-03-31 16:14:00,49.3,22.8,29.75,South,180,9.2,9.2,35,0.00,CLR,,0.00,WeatherDisplay:10.37,2013-03-31 20:14:00,
2013-03-31 16:19:00,49.3,22.8,29.75,North,0,5.8,5.8,35,0.00,CLR,,0.00,WeatherDisplay:10.37,2013-03-31 20:19:00,
2013-03-31 16:24:00,49.1,23.9,29.75,SW,225,8.1,8.1,37,0.00,CLR,,0.00,WeatherDisplay:10.37,2013-03-31 20:24:00,
2013-03-31 16:29:00,48.9,25.0,29.75,East,90,8.1,8.1,39,0.00,CLR,,0.00,WeatherDisplay:10.37,2013-03-31 20:29:00,
2013-03-31 16:34:00,48.2,26.2,29.74,NW,315,8.1,8.1,42,0.00,CLR,,0.00,WeatherDisplay:10.37,2013-03-31 20:34:00,
2013-03-31 16:40:00,47.8,27.0,29.74,South,186,1.0,8.0,44,0.00,CLR,,0.00,WeatherDisplay:10.37,2013-03-31 20:40:00,
2013-03-31 16:45:00,47.5,27.7,29.74,South,180,1.0,7.0,46,0.01,RA,,0.01,WeatherDisplay:10.37,2013-03-31 20:45:00,
2013-03-31 16:50:00,47.3,28.1,29.74,South,184,2.0,7.0,47,0.01,RA,,0.01,WeatherDisplay:10.37,2013-03-31 20:50:00,
2013-03-31 16:55:00,46.9,28.3,29.74,SSW,213,1.0,5.0,48,0.02,RA,,0.02,WeatherDisplay:10.37,2013-03-31 20:55:00,
2013-03-31 17:00:00,46.9,28.8,29.74,SW,225,2.0,7.0,49,0.02,RA,,0.02,WeatherDisplay:10.37,2013-03-31 21:00:00,
2013-03-31 17:05:00,46.8,29.6,29.73,South,180,4.6,4.6,51,0.04,RA,,0.04,WeatherDisplay:10.37,2013-03-31 21:05:00,
2013-03-31 17:10:00,46.4,29.7,29.72,NE,45,3.5,0.0,52,0.06,RA,,0.06,WeatherDisplay:10.37,2013-03-31 21:10:00,
2013-03-31 17:15:00,46.2,30.0,29.73,NW,315,6.9,6.9,53,0.06,RA,,0.06,WeatherDisplay:10.37,2013-03-31 21:15:00,
2013-03-31 17:20:00,46.2,30.5,29.73,NE,45,4.6,4.6,54,0.06,,,0.06,WeatherDisplay:10.37,2013-03-31 21:20:00,
2013-03-31 17:25:00,46.2,30.9,29.72,NE,45,5.8,5.8,55,0.07,RA,,0.07,WeatherDisplay:10.37,2013-03-31 21:25:00,
2013-03-31 17:30:00,46.2,30.9,29.71,NE,45,10.4,10.4,55,0.09,RA,,0.09,WeatherDisplay:10.37,2013-03-31 21:30:00,
2013-03-31 17:35:00,46.2,31.4,29.72,ENE,68,3.5,3.5,56,0.11,RA,,0.11,WeatherDisplay:10.37,2013-03-31 21:35:00,
2013-03-31 17:40:00,46.0,31.2,29.72,NE,45,3.5,3.5,56,0.13,RA,,0.13,WeatherDisplay:10.37,2013-03-31 21:40:00,
2013-03-31 17:45:00,46.0,31.6,29.70,NE,45,6.9,6.9,57,0.14,RA,,0.15,WeatherDisplay:10.37,2013-03-31 21:45:00,
2013-03-31 17:50:00,45.9,31.5,29.70,South,180,2.3,2.3,57,0.17,RA,,0.18,WeatherDisplay:10.37,2013-03-31 21:50:00,
2013-03-31 17:56:00,45.7,31.3,29.71,NE,45,3.5,0.0,57,0.18,RA,,0.20,WeatherDisplay:10.37,2013-03-31 21:56:00,
2013-03-31 18:01:00,45.5,31.1,29.70,East,90,1.2,0.0,57,0.20,RA,,0.22,WeatherDisplay:10.37,2013-03-31 22:01:00,
2013-03-31 18:07:00,45.5,31.6,29.69,SW,225,5.4,5.4,58,0.19,RA,,0.24,WeatherDisplay:10.37,2013-03-31 22:07:00,
2013-03-31 18:12:00,45.5,32.0,29.69,SW,225,4.6,4.6,59,0.20,RA,,0.26,WeatherDisplay:10.37,2013-03-31 22:12:00,
2013-03-31 18:17:00,45.3,31.8,29.69,SSW,202,2.3,0.0,59,0.21,RA,,0.28,WeatherDisplay:10.37,2013-03-31 22:17:00,
2013-03-31 18:23:00,45.3,31.8,29.68,East,90,1.2,0.0,59,0.24,RA,,0.31,WeatherDisplay:10.37,2013-03-31 22:23:00,
2013-03-31 18:28:00,45.3,32.2,29.67,NE,45,5.8,5.8,60,0.25,RA,,0.33,WeatherDisplay:10.37,2013-03-31 22:28:00,
2013-03-31 18:33:00,45.3,32.2,29.67,SE,135,4.6,4.6,60,0.25,RA,,0.34,WeatherDisplay:10.37,2013-03-31 22:33:00,
2013-03-31 18:38:00,45.3,32.7,29.67,NW,315,3.5,3.5,61,0.24,RA,,0.35,WeatherDisplay:10.37,2013-03-31 22:38:00,
2013-03-31 18:43:00,45.3,33.1,29.66,East,90,4.6,4.6,62,0.22,RA,,0.37,WeatherDisplay:10.37,2013-03-31 22:43:00,
2013-03-31 18:48:00,45.3,33.5,29.66,NE,45,6.9,6.9,63,0.21,RA,,0.38,WeatherDisplay:10.37,2013-03-31 22:48:00,
2013-03-31 18:53:00,45.3,33.5,29.65,SE,135,3.5,3.5,63,0.19,RA,,0.39,WeatherDisplay:10.37,2013-03-31 22:53:00,
2013-03-31 18:58:00,45.1,33.7,29.64,South,180,8.1,8.1,64,0.19,RA,,0.40,WeatherDisplay:10.37,2013-03-31 22:58:00,
2013-03-31 19:03:00,45.1,33.7,29.63,East,90,3.5,3.5,64,0.18,RA,,0.40,WeatherDisplay:10.37,2013-03-31 23:03:00,
2013-03-31 19:08:00,45.1,34.1,29.63,WSW,248,3.5,3.5,65,0.18,RA,,0.41,WeatherDisplay:10.37,2013-03-31 23:08:00,
2013-03-31 19:13:00,45.1,34.1,29.62,SE,135,8.1,8.1,65,0.15,RA,,0.41,WeatherDisplay:10.37,2013-03-31 23:13:00,
2013-03-31 19:18:00,45.1,34.5,29.62,NE,45,9.2,9.2,66,0.13,CLR,,0.41,WeatherDisplay:10.37,2013-03-31 23:18:00,
2013-03-31 19:23:00,45.3,35.0,29.62,SE,135,10.4,10.4,67,0.11,CLR,,0.41,WeatherDisplay:10.37,2013-03-31 23:23:00,
2013-03-31 19:28:00,45.1,34.8,29.62,East,90,6.9,6.9,67,0.08,CLR,,0.41,WeatherDisplay:10.37,2013-03-31 23:28:00,
2013-03-31 19:33:00,45.1,35.2,29.61,South,180,6.9,6.9,68,0.08,RA,,0.43,WeatherDisplay:10.37,2013-03-31 23:33:00,
2013-03-31 19:39:00,45.3,35.7,29.60,NE,45,8.1,8.1,69,0.07,RA,,0.43,WeatherDisplay:10.37,2013-03-31 23:39:00,
2013-03-31 19:44:00,45.1,35.6,29.59,West,270,5.8,5.8,69,0.06,CLR,,0.43,WeatherDisplay:10.37,2013-03-31 23:44:00,
2013-03-31 19:50:00,45.1,35.6,29.59,NNE,13,2.0,9.0,69,0.06,RA,,0.44,WeatherDisplay:10.37,2013-03-31 23:50:00,
2013-03-31 19:55:00,45.1,35.9,29.58,ESE,122,2.0,8.0,70,0.05,RA,,0.44,WeatherDisplay:10.37,2013-03-31 23:55:00,
2013-03-31 20:00:00,45.1,35.9,29.59,East,90,6.9,6.9,70,0.04,,,0.44,WeatherDisplay:10.37,2013-04-01 00:00:00,
2013-03-31 20:05:00,45.1,35.9,29.58,SE,135,5.8,5.8,70,0.02,CLR,,0.44,WeatherDisplay:10.37,2013-04-01 00:05:00,
2013-03-31 20:10:00,45.1,36.3,29.58,NW,315,5.8,5.8,71,0.02,CLR,,0.44,WeatherDisplay:10.37,2013-04-01 00:10:00,
2013-03-31 20:15:00,45.3,36.5,29.58,South,180,1.2,0.0,71,0.02,CLR,,0.44,WeatherDisplay:10.37,2013-04-01 00:15:00,
2013-03-31 20:20:00,45.3,36.5,29.57,South,180,1.2,0.0,71,0.02,CLR,,0.44,WeatherDisplay:10.37,2013-04-01 00:20:00,
2013-03-31 20:25:00,45.5,36.6,29.57,South,180,3.5,3.5,71,0.02,CLR,,0.44,WeatherDisplay:10.37,2013-04-01 00:25:00,
2013-03-31 20:30:00,45.7,37.2,29.56,NE,45,12.7,12.7,72,0.02,RA,,0.45,WeatherDisplay:10.37,2013-04-01 00:30:00,
2013-03-31 20:35:00,46.2,38.0,29.56,SW,225,9.2,9.2,73,0.02,RA,,0.45,WeatherDisplay:10.37,2013-04-01 00:35:00,
2013-03-31 20:40:00,46.4,38.6,29.57,SSW,202,4.6,4.6,74,0.02,CLR,,0.45,WeatherDisplay:10.37,2013-04-01 00:40:00,
2013-03-31 20:45:00,46.4,38.6,29.57,South,180,6.9,6.9,74,0.02,CLR,,0.45,WeatherDisplay:10.37,2013-04-01 00:45:00,
2013-03-31 20:50:00,46.9,39.8,29.57,WNW,292,5.8,5.8,76,0.01,CLR,,0.45,WeatherDisplay:10.37,2013-04-01 00:50:00,
2013-03-31 20:55:00,47.3,40.5,29.57,West,270,5.8,5.8,77,0.01,CLR,,0.45,WeatherDisplay:10.37,2013-04-01 00:55:00,
2013-03-31 21:00:00,47.3,40.8,29.56,SE,135,5.8,5.8,78,0.01,CLR,,0.45,WeatherDisplay:10.37,2013-04-01 01:00:00,
2013-03-31 21:05:00,47.5,41.0,29.57,SE,135,3.5,0.0,78,0.01,CLR,,0.45,WeatherDisplay:10.37,2013-04-01 01:05:00,
2013-03-31 21:10:00,47.5,41.0,29.56,North,0,3.5,0.0,78,0.01,CLR,,0.45,WeatherDisplay:10.37,2013-04-01 01:10:00,
2013-03-31 21:15:00,47.7,41.5,29.56,SW,225,3.5,3.5,79,0.01,CLR,,0.45,WeatherDisplay:10.37,2013-04-01 01:15:00,
2013-03-31 21:21:00,47.8,41.6,29.56,West,270,3.5,3.5,79,0.01,CLR,,0.45,WeatherDisplay:10.37,2013-04-01 01:21:00,
2013-03-31 21:26:00,48.0,42.1,29.56,SW,225,4.6,0.0,80,0.01,CLR,,0.45,WeatherDisplay:10.37,2013-04-01 01:26:00,
2013-03-31 21:31:00,48.0,42.1,29.55,South,180,2.3,2.3,80,0.00,CLR,,0.45,WeatherDisplay:10.37,2013-04-01 01:31:00,
2013-03-31 21:36:00,48.2,42.3,29.55,South,180,1.2,1.2,80,0.00,CLR,,0.45,WeatherDisplay:10.37,2013-04-01 01:36:00,
2013-03-31 21:41:00,48.4,42.5,29.55,South,180,2.3,0.0,80,0.00,CLR,,0.45,WeatherDisplay:10.37,2013-04-01 01:41:00,
2013-03-31 21:47:00,48.4,42.8,29.55,SE,135,1.2,0.0,81,0.00,CLR,,0.45,WeatherDisplay:10.37,2013-04-01 01:47:00,
2013-03-31 21:52:00,48.4,42.8,29.55,South,180,0.0,0.0,81,0.00,CLR,,0.45,WeatherDisplay:10.37,2013-04-01 01:52:00,
2013-03-31 21:57:00,48.4,42.8,29.54,South,180,2.3,0.0,81,0.00,CLR,,0.45,WeatherDisplay:10.37,2013-04-01 01:57:00,
2013-03-31 22:02:00,48.6,43.0,29.54,SSE,158,3.5,0.0,81,0.00,CLR,,0.45,WeatherDisplay:10.37,2013-04-01 02:02:00,
2013-03-31 22:08:00,48.6,43.3,29.55,SE,135,5.8,5.8,82,0.00,CLR,,0.45,WeatherDisplay:10.37,2013-04-01 02:08:00,
2013-03-31 22:13:00,48.6,43.3,29.55,South,180,2.3,0.0,82,0.00,CLR,,0.45,WeatherDisplay:10.37,2013-04-01 02:13:00,
2013-03-31 22:18:00,48.6,43.3,29.55,SSE,158,3.8,3.8,82,0.00,CLR,,0.45,WeatherDisplay:10.37,2013-04-01 02:18:00,
2013-03-31 22:24:00,48.6,43.3,29.55,South,180,3.5,3.5,82,0.00,CLR,,0.45,WeatherDisplay:10.37,2013-04-01 02:24:00,
2013-03-31 22:29:00,48.4,43.1,29.55,South,180,5.8,5.8,82,0.00,CLR,,0.45,WeatherDisplay:10.37,2013-04-01 02:29:00,
2013-03-31 22:34:00,48.4,43.5,29.55,South,180,4.5,4.5,83,0.00,CLR,,0.45,WeatherDisplay:10.37,2013-04-01 02:34:00,
2013-03-31 22:39:00,48.4,43.5,29.55,South,180,5.8,5.8,83,0.00,CLR,,0.45,WeatherDisplay:10.37,2013-04-01 02:39:00,
2013-03-31 22:44:00,48.4,43.5,29.55,South,180,5.8,5.8,83,0.00,CLR,,0.45,WeatherDisplay:10.37,2013-04-01 02:44:00,
2013-03-31 22:49:00,48.4,43.8,29.55,SW,225,5.8,5.8,84,0.00,CLR,,0.45,WeatherDisplay:10.37,2013-04-01 02:49:00,
2013-03-31 22:54:00,48.4,43.8,29.55,SW,225,8.1,8.1,84,0.00,CLR,,0.45,WeatherDisplay:10.37,2013-04-01 02:54:00,
2013-03-31 22:59:00,48.6,44.3,29.54,South,180,6.9,6.9,85,0.00,CLR,,0.45,WeatherDisplay:10.37,2013-04-01 02:59:00,
2013-03-31 23:04:00,48.6,44.3,29.54,SE,135,5.8,5.8,85,0.00,CLR,,0.45,WeatherDisplay:10.37,2013-04-01 03:04:00,
2013-03-31 23:09:00,48.7,44.7,29.55,South,180,9.2,9.2,86,0.00,CLR,,0.45,WeatherDisplay:10.37,2013-04-01 03:09:00,
2013-03-31 23:14:00,48.9,44.9,29.54,South,180,8.1,8.1,86,0.00,CLR,,0.45,WeatherDisplay:10.37,2013-04-01 03:14:00,
2013-03-31 23:19:00,49.1,45.4,29.55,South,180,9.2,9.2,87,0.00,CLR,,0.45,WeatherDisplay:10.37,2013-04-01 03:19:00,
2013-03-31 23:24:00,49.1,45.4,29.55,West,270,5.8,5.8,87,0.00,CLR,,0.45,WeatherDisplay:10.37,2013-04-01 03:24:00,
2013-03-31 23:29:00,49.3,45.9,29.55,SE,135,8.1,8.1,88,0.00,CLR,,0.45,WeatherDisplay:10.37,2013-04-01 03:29:00,
2013-03-31 23:34:00,49.5,46.1,29.55,SW,225,10.4,10.4,88,0.00,CLR,,0.45,WeatherDisplay:10.37,2013-04-01 03:34:00,
2013-03-31 23:39:00,49.6,46.2,29.55,SW,225,6.9,6.9,88,0.00,CLR,,0.45,WeatherDisplay:10.37,2013-04-01 03:39:00,
2013-03-31 23:45:00,49.6,46.5,29.55,South,190,2.0,8.0,89,0.00,CLR,,0.45,WeatherDisplay:10.37,2013-04-01 03:45:00,
2013-03-31 23:50:00,49.8,46.7,29.55,South,186,5.0,11.0,89,0.00,CLR,,0.45,WeatherDisplay:10.37,2013-04-01 03:50:00,
2013-03-31 23:55:00,50.0,46.9,29.55,South,188,3.0,9.0,89,0.00,CLR,,0.45,WeatherDisplay:10.37,2013-04-01 03:55:00,